Year,Month,Day,Hour,Minute,Value (Times are PST for barometer in hPa)
2020,05,07,01,29,1029.40
2020,05,07,01,30,1029.40
2020,05,07,01,31,1029.40
2020,05,07,01,32,1029.40
2020,05,07,01,33,1029.40
2020,05,07,01,34,1029.40
2020,05,07,01,35,1029.40
2020,05,07,01,36,1029.40
2020,05,07,01,37,1029.40
2020,05,07,01,38,1029.40
2020,05,07,01,39,1029.40
2020,05,07,01,40,1029.40
2020,05,07,01,41,1029.40
2020,05,07,01,42,1029.40
2020,05,07,01,43,1029.50
2020,05,07,01,44,1029.50
2020,05,07,01,45,1029.50
2020,05,07,01,46,1029.50
2020,05,07,01,47,1029.50
2020,05,07,01,48,1029.50
2020,05,07,01,49,1029.50
2020,05,07,01,50,1029.50
2020,05,07,01,51,1029.50
2020,05,07,01,52,1029.50
2020,05,07,01,53,1029.50
2020,05,07,01,54,1029.50
2020,05,07,01,55,1029.50
2020,05,07,01,56,1029.40
2020,05,07,01,58,1029.40
2020,05,07,01,59,1029.40
2020,05,07,02,01,1029.40
2020,05,07,02,02,1029.40
2020,05,07,02,03,1029.40
2020,05,07,02,04,1029.40
2020,05,07,02,06,1029.50
2020,05,07,02,07,1029.50
2020,05,07,02,08,1029.50
2020,05,07,02,09,1029.50
2020,05,07,02,11,1029.50
2020,05,07,02,12,1029.50
2020,05,07,02,13,1029.50
2020,05,07,02,14,1029.50
2020,05,07,02,16,1029.50
2020,05,07,02,17,1029.50
2020,05,07,02,18,1029.50
2020,05,07,02,19,1029.50
2020,05,07,02,21,1029.50
2020,05,07,02,22,1029.50
2020,05,07,02,23,1029.50
2020,05,07,02,24,1029.50
2020,05,07,02,26,1029.50
2020,05,07,02,27,1029.50
2020,05,07,02,28,1029.50
2020,05,07,02,29,1029.60
2020,05,07,02,31,1029.50
2020,05,07,02,32,1029.50
2020,05,07,02,33,1029.50
2020,05,07,02,34,1029.50
2020,05,07,02,36,1029.50
2020,05,07,02,37,1029.50
2020,05,07,02,38,1029.50
2020,05,07,02,39,1029.50
2020,05,07,02,41,1029.50
2020,05,07,02,42,1029.50
2020,05,07,02,43,1029.50
2020,05,07,02,44,1029.50
2020,05,07,02,46,1029.50
2020,05,07,02,47,1029.50
2020,05,07,02,48,1029.50
2020,05,07,02,49,1029.50
2020,05,07,02,51,1029.50
2020,05,07,02,52,1029.50
2020,05,07,02,53,1029.50
2020,05,07,02,54,1029.50
2020,05,07,02,56,1029.50
2020,05,07,02,57,1029.50
2020,05,07,02,58,1029.50
2020,05,07,02,59,1029.40
2020,05,07,03,01,1029.40
2020,05,07,03,02,1029.40
2020,05,07,03,03,1029.40
2020,05,07,03,04,1029.40
2020,05,07,03,06,1029.40
2020,05,07,03,07,1029.40
2020,05,07,03,08,1029.50
2020,05,07,03,09,1029.50
2020,05,07,03,11,1029.50
2020,05,07,03,12,1029.50
2020,05,07,03,13,1029.50
2020,05,07,03,14,1029.50
2020,05,07,03,15,1029.40
2020,05,07,03,16,1029.40
2020,05,07,03,17,1029.40
2020,05,07,03,18,1029.40
2020,05,07,03,19,1029.40
2020,05,07,03,20,1029.50
2020,05,07,03,21,1029.50
2020,05,07,03,22,1029.50
2020,05,07,03,23,1029.50
2020,05,07,03,24,1029.50
2020,05,07,03,25,1029.50
2020,05,07,03,26,1029.50
2020,05,07,03,27,1029.50
2020,05,07,03,28,1029.50
2020,05,07,03,29,1029.50
2020,05,07,03,30,1029.50
2020,05,07,03,31,1029.50
2020,05,07,03,32,1029.50
2020,05,07,03,33,1029.50
2020,05,07,03,34,1029.50
2020,05,07,03,35,1029.50
2020,05,07,03,36,1029.50
2020,05,07,03,37,1029.60
2020,05,07,03,38,1029.60
2020,05,07,03,39,1029.60
2020,05,07,03,40,1029.60
2020,05,07,03,41,1029.60
2020,05,07,03,42,1029.70
2020,05,07,03,43,1029.70
2020,05,07,03,44,1029.70
2020,05,07,03,45,1029.70
2020,05,07,03,46,1029.70
2020,05,07,03,47,1029.80
2020,05,07,03,48,1029.80
2020,05,07,03,49,1029.80
2020,05,07,03,50,1029.80
2020,05,07,03,51,1029.80
2020,05,07,03,52,1029.90
2020,05,07,03,53,1029.90
2020,05,07,03,54,1029.90
2020,05,07,03,55,1029.90
2020,05,07,03,56,1029.90
2020,05,07,03,57,1029.90
2020,05,07,03,58,1029.90
2020,05,07,03,59,1029.90
2020,05,07,04,00,1029.90
2020,05,07,04,01,1029.90
2020,05,07,04,02,1029.90
2020,05,07,04,03,1029.90
2020,05,07,04,04,1029.90
2020,05,07,04,05,1029.90
2020,05,07,04,06,1029.90
2020,05,07,04,07,1029.90
2020,05,07,04,08,1029.90
2020,05,07,04,09,1029.90
2020,05,07,04,10,1029.90
2020,05,07,04,11,1029.90
2020,05,07,04,12,1029.90
2020,05,07,04,13,1029.90
2020,05,07,04,14,1029.90
2020,05,07,04,15,1030.00
2020,05,07,04,16,1030.00
2020,05,07,04,17,1029.90
2020,05,07,04,18,1029.90
2020,05,07,04,19,1029.90
2020,05,07,04,20,1030.00
2020,05,07,04,21,1030.00
2020,05,07,04,22,1030.00
2020,05,07,04,23,1030.00
2020,05,07,04,24,1030.00
2020,05,07,04,25,1030.00
2020,05,07,04,26,1029.90
2020,05,07,04,27,1029.90
2020,05,07,04,28,1029.90
2020,05,07,04,29,1029.90
2020,05,07,04,30,1029.90
2020,05,07,04,31,1029.90
2020,05,07,04,32,1029.90
2020,05,07,04,33,1029.90
2020,05,07,04,34,1029.90
2020,05,07,04,35,1029.90
2020,05,07,04,36,1029.90
2020,05,07,04,37,1029.90
2020,05,07,04,38,1029.90
2020,05,07,04,39,1029.90
2020,05,07,04,40,1029.90
2020,05,07,04,41,1030.00
2020,05,07,04,42,1029.90
2020,05,07,04,43,1029.90
2020,05,07,04,44,1029.90
2020,05,07,04,45,1030.00
2020,05,07,04,46,1030.00
2020,05,07,04,47,1030.00
2020,05,07,04,48,1030.00
2020,05,07,04,49,1030.00
2020,05,07,04,50,1030.00
2020,05,07,04,51,1030.00
2020,05,07,04,52,1030.00
2020,05,07,04,53,1030.00
2020,05,07,04,54,1030.00
2020,05,07,04,55,1030.00
2020,05,07,04,56,1030.00
2020,05,07,04,57,1030.00
2020,05,07,04,58,1030.00
2020,05,07,04,59,1030.00
2020,05,07,05,01,1030.00
2020,05,07,05,02,1030.00
2020,05,07,05,03,1030.00
2020,05,07,05,04,1030.00
2020,05,07,05,06,1030.00
2020,05,07,05,07,1030.00
2020,05,07,05,08,1030.00
2020,05,07,05,09,1030.00
2020,05,07,05,10,1030.00
2020,05,07,05,11,1030.00
2020,05,07,05,12,1030.00
2020,05,07,05,13,1030.00
2020,05,07,05,14,1029.90
2020,05,07,05,15,1029.90
2020,05,07,05,16,1029.90
2020,05,07,05,17,1030.00
2020,05,07,05,18,1030.00
2020,05,07,05,19,1030.00
2020,05,07,05,20,1030.00
2020,05,07,05,21,1030.00
2020,05,07,05,22,1030.00
2020,05,07,05,23,1030.00
2020,05,07,05,24,1030.00
2020,05,07,05,25,1030.00
2020,05,07,05,26,1030.00
2020,05,07,05,27,1030.00
2020,05,07,05,28,1030.00
2020,05,07,05,29,1030.00
2020,05,07,05,30,1030.00
2020,05,07,05,31,1030.00
2020,05,07,05,32,1030.00
2020,05,07,05,33,1030.00
2020,05,07,05,34,1030.00
2020,05,07,05,35,1030.00
2020,05,07,05,36,1030.00
2020,05,07,05,37,1030.00
2020,05,07,05,38,1030.00
2020,05,07,05,39,1030.00
2020,05,07,05,40,1030.00
2020,05,07,05,41,1030.00
2020,05,07,05,42,1029.90
2020,05,07,05,43,1029.90
2020,05,07,05,44,1029.90
2020,05,07,05,45,1029.90
2020,05,07,05,46,1030.00
2020,05,07,05,47,1030.00
2020,05,07,05,48,1030.00
2020,05,07,05,49,1030.00
2020,05,07,05,50,1030.00
2020,05,07,05,51,1030.00
2020,05,07,05,52,1030.00
2020,05,07,05,53,1030.00
2020,05,07,05,54,1030.00
2020,05,07,05,55,1030.00
2020,05,07,05,56,1030.00
2020,05,07,05,57,1029.90
2020,05,07,05,58,1029.90
2020,05,07,05,59,1029.90
2020,05,07,06,00,1029.90
2020,05,07,06,01,1030.00
2020,05,07,06,02,1030.00
2020,05,07,06,03,1030.00
2020,05,07,06,04,1030.00
2020,05,07,06,05,1030.00
2020,05,07,06,06,1030.00
2020,05,07,06,07,1030.00
2020,05,07,06,08,1030.00
2020,05,07,06,09,1030.00
2020,05,07,06,10,1030.00
2020,05,07,06,11,1030.00
2020,05,07,06,12,1030.00
2020,05,07,06,13,1030.00
2020,05,07,06,14,1030.00
2020,05,07,06,15,1030.00
2020,05,07,06,16,1030.00
2020,05,07,06,17,1029.90
2020,05,07,06,18,1029.90
2020,05,07,06,19,1029.90
2020,05,07,06,20,1029.90
2020,05,07,06,21,1029.90
2020,05,07,06,22,1029.90
2020,05,07,06,23,1029.90
2020,05,07,06,24,1029.90
2020,05,07,06,25,1029.90
2020,05,07,06,26,1029.90
2020,05,07,06,27,1029.90
2020,05,07,06,28,1029.90
2020,05,07,06,29,1029.90
2020,05,07,06,30,1029.90
2020,05,07,06,32,1029.90
2020,05,07,06,33,1029.90
2020,05,07,06,34,1029.90
2020,05,07,06,35,1030.00
2020,05,07,06,36,1030.00
2020,05,07,06,37,1030.00
2020,05,07,06,38,1030.00
2020,05,07,06,39,1029.90
2020,05,07,06,40,1029.90
2020,05,07,06,41,1029.90
2020,05,07,06,42,1029.90
2020,05,07,06,43,1029.90
2020,05,07,06,44,1030.00
2020,05,07,06,45,1030.00
2020,05,07,06,46,1030.00
2020,05,07,06,47,1030.00
2020,05,07,06,48,1030.00
2020,05,07,06,49,1030.00
2020,05,07,06,50,1030.00
2020,05,07,06,51,1029.90
2020,05,07,06,52,1029.90
2020,05,07,06,53,1029.90
2020,05,07,06,54,1029.90
2020,05,07,06,55,1029.90
2020,05,07,06,56,1029.90
2020,05,07,06,57,1029.90
2020,05,07,06,58,1029.90
2020,05,07,06,59,1029.90
2020,05,07,07,00,1030.00
2020,05,07,07,01,1030.00
2020,05,07,07,02,1029.90
2020,05,07,07,03,1029.90
2020,05,07,07,04,1029.90
2020,05,07,07,05,1029.90
2020,05,07,07,06,1029.90
2020,05,07,07,07,1029.90
2020,05,07,07,08,1029.90
2020,05,07,07,09,1029.90
2020,05,07,07,10,1029.90
2020,05,07,07,11,1029.90
2020,05,07,07,12,1029.90
2020,05,07,07,13,1030.00
2020,05,07,07,14,1030.00
2020,05,07,07,15,1029.90
2020,05,07,07,16,1029.90
2020,05,07,07,17,1029.90
2020,05,07,07,18,1029.90
2020,05,07,07,19,1029.90
2020,05,07,07,20,1029.90
2020,05,07,07,21,1029.90
2020,05,07,07,22,1029.90
2020,05,07,07,23,1029.90
2020,05,07,07,24,1030.00
2020,05,07,07,25,1030.00
2020,05,07,07,26,1030.00
2020,05,07,07,27,1030.00
2020,05,07,07,28,1030.00
2020,05,07,07,29,1030.00
2020,05,07,07,30,1030.00
2020,05,07,07,31,1030.00
2020,05,07,07,33,1029.90
2020,05,07,07,34,1029.90
2020,05,07,07,36,1029.90
2020,05,07,07,37,1030.00
2020,05,07,07,38,1030.00
2020,05,07,07,39,1030.00
2020,05,07,07,41,1030.00
2020,05,07,07,42,1030.00
2020,05,07,07,43,1030.00
2020,05,07,07,44,1030.00
2020,05,07,07,46,1030.00
2020,05,07,07,47,1030.00
2020,05,07,07,48,1030.00
2020,05,07,07,49,1029.90
2020,05,07,07,51,1029.90
2020,05,07,07,52,1029.90
2020,05,07,07,53,1029.90
2020,05,07,07,54,1029.90
2020,05,07,07,56,1029.90
2020,05,07,07,57,1029.90
2020,05,07,07,58,1029.90
2020,05,07,07,59,1029.90
2020,05,07,08,01,1029.90
2020,05,07,08,02,1029.90
2020,05,07,08,03,1029.90
2020,05,07,08,04,1029.90
2020,05,07,08,06,1029.80
2020,05,07,08,07,1029.80
2020,05,07,08,08,1029.70
2020,05,07,08,09,1029.70
2020,05,07,08,11,1029.80
2020,05,07,08,12,1029.90
2020,05,07,08,13,1029.90
2020,05,07,08,14,1029.90
2020,05,07,08,16,1029.90
2020,05,07,08,17,1029.80
2020,05,07,08,18,1029.80
2020,05,07,08,19,1029.80
2020,05,07,08,21,1029.60
2020,05,07,08,22,1029.60
2020,05,07,08,23,1029.70
2020,05,07,08,24,1029.80
2020,05,07,08,26,1029.80
2020,05,07,08,27,1029.80
2020,05,07,08,28,1029.80
2020,05,07,08,29,1029.80
2020,05,07,08,31,1029.70
2020,05,07,08,32,1029.70
2020,05,07,08,33,1029.70
2020,05,07,08,34,1029.80
2020,05,07,08,36,1029.90
2020,05,07,08,37,1029.90
2020,05,07,08,38,1029.90
2020,05,07,08,39,1029.80
2020,05,07,08,41,1029.70
2020,05,07,08,42,1029.70
2020,05,07,08,43,1029.60
2020,05,07,08,44,1029.70
2020,05,07,08,46,1029.80
2020,05,07,08,47,1029.80
2020,05,07,08,48,1029.80
2020,05,07,08,49,1029.80
2020,05,07,08,51,1029.70
2020,05,07,08,52,1029.70
2020,05,07,08,53,1029.70
2020,05,07,08,54,1029.60
2020,05,07,08,55,1029.60
2020,05,07,08,56,1029.60
2020,05,07,08,57,1029.60
2020,05,07,08,58,1029.60
2020,05,07,08,59,1029.70
2020,05,07,09,01,1029.80
2020,05,07,09,02,1029.80
2020,05,07,09,03,1029.80
2020,05,07,09,04,1029.80
2020,05,07,09,06,1029.70
2020,05,07,09,07,1029.70
2020,05,07,09,08,1029.70
2020,05,07,09,09,1029.70
2020,05,07,09,10,1029.80
2020,05,07,09,11,1029.80
2020,05,07,09,12,1029.80
2020,05,07,09,13,1029.80
2020,05,07,09,14,1029.80
2020,05,07,09,15,1029.80
2020,05,07,09,16,1029.80
2020,05,07,09,17,1029.70
2020,05,07,09,18,1029.70
2020,05,07,09,19,1029.70
2020,05,07,09,20,1029.70
2020,05,07,09,21,1029.70
2020,05,07,09,22,1029.80
2020,05,07,09,23,1029.80
2020,05,07,09,24,1029.70
2020,05,07,09,25,1029.70
2020,05,07,09,26,1029.70
2020,05,07,09,27,1029.70
2020,05,07,09,28,1029.70
2020,05,07,09,29,1029.70
2020,05,07,09,30,1029.70
2020,05,07,09,31,1029.60
2020,05,07,09,32,1029.60
2020,05,07,09,33,1029.50
2020,05,07,09,34,1029.50
2020,05,07,09,35,1029.50
2020,05,07,09,36,1029.50
2020,05,07,09,37,1029.50
2020,05,07,09,38,1029.50
2020,05,07,09,39,1029.50
2020,05,07,09,40,1029.50
2020,05,07,09,41,1029.50
2020,05,07,09,42,1029.50
2020,05,07,09,43,1029.50
2020,05,07,09,44,1029.50
2020,05,07,09,45,1029.50
2020,05,07,09,46,1029.50
2020,05,07,09,47,1029.50
2020,05,07,09,48,1029.40
2020,05,07,09,49,1029.40
2020,05,07,09,50,1029.40
2020,05,07,09,51,1029.40
2020,05,07,09,52,1029.40
2020,05,07,09,53,1029.40
2020,05,07,09,54,1029.40
2020,05,07,09,55,1029.40
2020,05,07,09,56,1029.40
2020,05,07,09,57,1029.30
2020,05,07,09,58,1029.30
2020,05,07,09,59,1029.30
2020,05,07,10,00,1029.20
2020,05,07,10,01,1029.20
2020,05,07,10,02,1029.10
2020,05,07,10,03,1029.10
2020,05,07,10,04,1029.10
2020,05,07,10,05,1029.10
2020,05,07,10,06,1029.00
2020,05,07,10,07,1029.00
2020,05,07,10,08,1029.00
2020,05,07,10,09,1029.00
2020,05,07,10,10,1029.00
2020,05,07,10,11,1029.00
2020,05,07,10,12,1029.00
2020,05,07,10,13,1029.00
2020,05,07,10,14,1029.00
2020,05,07,10,15,1029.00
2020,05,07,10,16,1029.00
2020,05,07,10,17,1029.00
2020,05,07,10,18,1029.00
2020,05,07,10,19,1029.00
2020,05,07,10,20,1029.00
2020,05,07,10,21,1028.90
2020,05,07,10,22,1028.90
2020,05,07,10,23,1028.90
2020,05,07,10,24,1028.90
2020,05,07,10,25,1028.90
2020,05,07,10,26,1028.90
2020,05,07,10,27,1028.90
2020,05,07,10,28,1028.90
2020,05,07,10,29,1028.90
2020,05,07,10,30,1028.90
2020,05,07,10,31,1028.90
2020,05,07,10,32,1028.90
2020,05,07,10,33,1028.80
2020,05,07,10,34,1028.80
2020,05,07,10,35,1028.80
2020,05,07,10,36,1028.80
2020,05,07,10,37,1028.80
2020,05,07,10,38,1028.80
2020,05,07,10,39,1028.80
2020,05,07,10,40,1028.80
2020,05,07,10,41,1028.80
2020,05,07,10,42,1028.80
2020,05,07,10,43,1028.90
2020,05,07,10,44,1028.90
2020,05,07,10,45,1028.90
2020,05,07,10,46,1028.80
2020,05,07,10,47,1028.80
2020,05,07,10,48,1028.80
2020,05,07,10,49,1028.80
2020,05,07,10,50,1028.80
2020,05,07,10,51,1028.80
2020,05,07,10,52,1028.80
2020,05,07,10,53,1028.80
2020,05,07,10,54,1028.80
2020,05,07,10,55,1028.80
2020,05,07,10,56,1028.80
2020,05,07,10,57,1028.80
2020,05,07,10,58,1028.80
2020,05,07,10,59,1028.80
2020,05,07,11,00,1028.70
2020,05,07,11,01,1028.70
2020,05,07,11,02,1028.70
2020,05,07,11,03,1028.70
2020,05,07,11,04,1028.70
2020,05,07,11,05,1028.70
2020,05,07,11,06,1028.70
2020,05,07,11,07,1028.70
2020,05,07,11,08,1028.70
2020,05,07,11,09,1028.70
2020,05,07,11,10,1028.60
2020,05,07,11,11,1028.70
2020,05,07,11,12,1028.70
2020,05,07,11,13,1028.60
2020,05,07,11,14,1028.60
2020,05,07,11,15,1028.60
2020,05,07,11,16,1028.60
2020,05,07,11,17,1028.60
2020,05,07,11,18,1028.60
2020,05,07,11,19,1028.60
2020,05,07,11,20,1028.60
2020,05,07,11,21,1028.60
2020,05,07,11,22,1028.50
2020,05,07,11,23,1028.50
2020,05,07,11,24,1028.50
2020,05,07,11,25,1028.50
2020,05,07,11,26,1028.40
2020,05,07,11,28,1028.40
2020,05,07,11,29,1028.40
2020,05,07,11,31,1028.40
2020,05,07,11,32,1028.40
2020,05,07,11,33,1028.40
2020,05,07,11,34,1028.40
2020,05,07,11,36,1028.40
2020,05,07,11,37,1028.30
2020,05,07,11,38,1028.30
2020,05,07,11,39,1028.30
2020,05,07,11,41,1028.30
2020,05,07,11,42,1028.30
2020,05,07,11,43,1028.30
2020,05,07,11,44,1028.30
2020,05,07,11,46,1028.20
2020,05,07,11,47,1028.10
2020,05,07,11,48,1028.10
2020,05,07,11,49,1028.10
2020,05,07,11,51,1028.00
2020,05,07,11,52,1028.00
2020,05,07,11,53,1028.00
2020,05,07,11,54,1028.00
2020,05,07,11,56,1028.10
2020,05,07,11,57,1028.00
2020,05,07,11,58,1028.00
2020,05,07,11,59,1028.00
2020,05,07,12,01,1028.00
2020,05,07,12,02,1028.00
2020,05,07,12,03,1027.90
2020,05,07,12,04,1027.90
2020,05,07,12,06,1027.90
2020,05,07,12,07,1027.90
2020,05,07,12,08,1027.90
2020,05,07,12,09,1027.90
2020,05,07,12,11,1027.80
2020,05,07,12,12,1027.80
2020,05,07,12,13,1027.80
2020,05,07,12,14,1027.80
2020,05,07,12,16,1027.80
2020,05,07,12,17,1027.80
2020,05,07,12,18,1027.80
2020,05,07,12,19,1027.70
2020,05,07,12,21,1027.70
2020,05,07,12,22,1027.60
2020,05,07,12,23,1027.60
2020,05,07,12,24,1027.60
2020,05,07,12,26,1027.50
2020,05,07,12,27,1027.50
2020,05,07,12,28,1027.50
2020,05,07,12,29,1027.50
2020,05,07,12,30,1027.50
2020,05,07,12,32,1027.50
2020,05,07,12,33,1027.50
2020,05,07,12,34,1027.50
2020,05,07,12,36,1027.50
2020,05,07,12,37,1027.50
2020,05,07,12,38,1027.50
2020,05,07,12,39,1027.40
2020,05,07,12,41,1027.40
2020,05,07,12,42,1027.40
2020,05,07,12,43,1027.40
2020,05,07,12,44,1027.40
2020,05,07,12,45,1027.40
2020,05,07,12,46,1027.40
2020,05,07,12,47,1027.40
2020,05,07,12,48,1027.40
2020,05,07,12,49,1027.40
2020,05,07,12,50,1027.40
2020,05,07,12,51,1027.40
2020,05,07,12,52,1027.40
2020,05,07,12,53,1027.40
2020,05,07,12,54,1027.40
2020,05,07,12,55,1027.30
2020,05,07,12,56,1027.30
2020,05,07,12,57,1027.30
2020,05,07,12,58,1027.30
2020,05,07,12,59,1027.30
2020,05,07,13,00,1027.30
2020,05,07,13,01,1027.30
2020,05,07,13,02,1027.30
2020,05,07,13,03,1027.30
2020,05,07,13,04,1027.30
2020,05,07,13,05,1027.30
2020,05,07,13,06,1027.30
2020,05,07,13,07,1027.30
2020,05,07,13,08,1027.30
2020,05,07,13,09,1027.30
2020,05,07,13,10,1027.30
2020,05,07,13,11,1027.20
2020,05,07,13,12,1027.20
2020,05,07,13,13,1027.20
2020,05,07,13,14,1027.20
2020,05,07,13,15,1027.20
2020,05,07,13,16,1027.10
2020,05,07,13,17,1027.10
2020,05,07,13,18,1027.00
2020,05,07,13,19,1027.00
2020,05,07,13,20,1027.00
2020,05,07,13,21,1027.00
2020,05,07,13,22,1027.00
2020,05,07,13,23,1026.90
2020,05,07,13,24,1026.90
2020,05,07,13,25,1026.90
2020,05,07,13,26,1026.90
2020,05,07,13,27,1026.90
2020,05,07,13,28,1026.90
2020,05,07,13,29,1026.80
2020,05,07,13,30,1026.90
2020,05,07,13,31,1026.80
2020,05,07,13,32,1026.80
2020,05,07,13,33,1026.80
2020,05,07,13,34,1026.80
2020,05,07,13,35,1026.80
2020,05,07,13,36,1026.80
2020,05,07,13,37,1026.80
2020,05,07,13,38,1026.80
2020,05,07,13,39,1026.80
2020,05,07,13,40,1026.80
2020,05,07,13,41,1026.80
2020,05,07,13,42,1026.80
2020,05,07,13,43,1026.80
2020,05,07,13,44,1026.80
2020,05,07,13,45,1026.80
2020,05,07,13,46,1026.80
2020,05,07,13,47,1026.80
2020,05,07,13,48,1026.80
2020,05,07,13,49,1026.80
2020,05,07,13,50,1026.80
2020,05,07,13,51,1026.80
2020,05,07,13,52,1026.80
2020,05,07,13,53,1026.70
2020,05,07,13,54,1026.70
2020,05,07,13,55,1026.70
2020,05,07,13,56,1026.70
2020,05,07,13,57,1026.70
2020,05,07,13,58,1026.70
2020,05,07,13,59,1026.70
2020,05,07,14,00,1026.60
2020,05,07,14,01,1026.60
2020,05,07,14,02,1026.60
2020,05,07,14,03,1026.60
2020,05,07,14,04,1026.60
2020,05,07,14,05,1026.50
2020,05,07,14,06,1026.50
2020,05,07,14,07,1026.50
2020,05,07,14,08,1026.40
2020,05,07,14,09,1026.40
2020,05,07,14,10,1026.40
2020,05,07,14,11,1026.40
2020,05,07,14,12,1026.40
2020,05,07,14,13,1026.40
2020,05,07,14,14,1026.40
2020,05,07,14,15,1026.30
2020,05,07,14,16,1026.30
2020,05,07,14,17,1026.30
2020,05,07,14,18,1026.30
2020,05,07,14,19,1026.30
2020,05,07,14,20,1026.30
2020,05,07,14,21,1026.30
2020,05,07,14,22,1026.30
2020,05,07,14,23,1026.30
2020,05,07,14,24,1026.30
2020,05,07,14,25,1026.30
2020,05,07,14,26,1026.30
2020,05,07,14,27,1026.20
2020,05,07,14,28,1026.20
2020,05,07,14,29,1026.20
2020,05,07,14,30,1026.20
2020,05,07,14,31,1026.10
2020,05,07,14,32,1026.10
2020,05,07,14,33,1026.10
2020,05,07,14,34,1026.00
2020,05,07,14,35,1026.00
2020,05,07,14,36,1026.00
2020,05,07,14,37,1026.00
2020,05,07,14,38,1026.00
2020,05,07,14,39,1025.90
2020,05,07,14,40,1025.90
2020,05,07,14,41,1025.90
2020,05,07,14,42,1025.90
2020,05,07,14,43,1025.80
2020,05,07,14,44,1025.80
2020,05,07,14,45,1025.80
2020,05,07,14,46,1025.80
2020,05,07,14,47,1025.80
2020,05,07,14,48,1025.80
2020,05,07,14,49,1025.80
2020,05,07,14,50,1025.80
2020,05,07,14,51,1025.80
2020,05,07,14,52,1025.80
2020,05,07,14,53,1025.80
2020,05,07,14,54,1025.80
2020,05,07,14,55,1025.80
2020,05,07,14,56,1025.80
2020,05,07,14,57,1025.80
2020,05,07,14,58,1025.80
2020,05,07,14,59,1025.80
2020,05,07,15,00,1025.80
2020,05,07,15,01,1025.80
2020,05,07,15,02,1025.80
2020,05,07,15,03,1025.80
2020,05,07,15,04,1025.80
2020,05,07,15,05,1025.80
2020,05,07,15,06,1025.80
2020,05,07,15,07,1025.70
2020,05,07,15,08,1025.70
2020,05,07,15,09,1025.70
2020,05,07,15,10,1025.70
2020,05,07,15,11,1025.70
2020,05,07,15,13,1025.70
2020,05,07,15,14,1025.70
2020,05,07,15,16,1025.60
2020,05,07,15,17,1025.60
2020,05,07,15,18,1025.50
2020,05,07,15,19,1025.50
2020,05,07,15,21,1025.50
2020,05,07,15,22,1025.50
2020,05,07,15,23,1025.40
2020,05,07,15,24,1025.40
2020,05,07,15,26,1025.40
2020,05,07,15,27,1025.40
2020,05,07,15,28,1025.40
2020,05,07,15,29,1025.30
2020,05,07,15,31,1025.30
2020,05,07,15,32,1025.30
2020,05,07,15,33,1025.30
2020,05,07,15,34,1025.30
2020,05,07,15,36,1025.30
2020,05,07,15,37,1025.30
2020,05,07,15,38,1025.30
2020,05,07,15,39,1025.30
2020,05,07,15,41,1025.20
2020,05,07,15,42,1025.20
2020,05,07,15,43,1025.20
2020,05,07,15,44,1025.20
2020,05,07,15,46,1025.20
2020,05,07,15,47,1025.20
2020,05,07,15,48,1025.20
2020,05,07,15,49,1025.20
2020,05,07,15,51,1025.10
2020,05,07,15,52,1025.10
2020,05,07,15,53,1025.10
2020,05,07,15,54,1025.10
2020,05,07,15,56,1025.10
2020,05,07,15,57,1025.10
2020,05,07,15,58,1025.00
2020,05,07,15,59,1025.00
2020,05,07,16,01,1025.00
2020,05,07,16,02,1025.00
2020,05,07,16,03,1024.90
2020,05,07,16,04,1025.00
2020,05,07,16,06,1024.90
2020,05,07,16,07,1024.90
2020,05,07,16,08,1024.90
2020,05,07,16,09,1024.90
2020,05,07,16,11,1024.80
2020,05,07,16,12,1024.80
2020,05,07,16,13,1024.80
2020,05,07,16,14,1024.80
2020,05,07,16,16,1024.70
2020,05,07,16,17,1024.80
2020,05,07,16,18,1024.70
2020,05,07,16,19,1024.70
2020,05,07,16,21,1024.70
2020,05,07,16,22,1024.70
2020,05,07,16,23,1024.70
2020,05,07,16,24,1024.70
2020,05,07,16,26,1024.70
2020,05,07,16,27,1024.70
2020,05,07,16,28,1024.70
2020,05,07,16,29,1024.70
2020,05,07,16,30,1024.70
2020,05,07,16,31,1024.70
2020,05,07,16,32,1024.70
2020,05,07,16,33,1024.70
2020,05,07,16,34,1024.60
2020,05,07,16,36,1024.60
2020,05,07,16,37,1024.60
2020,05,07,16,38,1024.60
2020,05,07,16,39,1024.60
2020,05,07,16,40,1024.60
2020,05,07,16,41,1024.50
2020,05,07,16,42,1024.50
2020,05,07,16,43,1024.50
2020,05,07,16,44,1024.50
2020,05,07,16,45,1024.50
2020,05,07,16,46,1024.40
2020,05,07,16,47,1024.40
2020,05,07,16,48,1024.40
2020,05,07,16,49,1024.40
2020,05,07,16,50,1024.40
2020,05,07,16,51,1024.40
2020,05,07,16,52,1024.30
2020,05,07,16,53,1024.30
2020,05,07,16,54,1024.30
2020,05,07,16,55,1024.30
2020,05,07,16,56,1024.30
2020,05,07,16,57,1024.30
2020,05,07,16,58,1024.30
2020,05,07,16,59,1024.30
2020,05,07,17,00,1024.20
2020,05,07,17,01,1024.20
2020,05,07,17,02,1024.20
2020,05,07,17,03,1024.20
2020,05,07,17,04,1024.20
2020,05,07,17,05,1024.20
2020,05,07,17,06,1024.20
2020,05,07,17,07,1024.20
2020,05,07,17,08,1024.20
2020,05,07,17,09,1024.10
2020,05,07,17,10,1024.10
2020,05,07,17,11,1024.10
2020,05,07,17,12,1024.10
2020,05,07,17,13,1024.10
2020,05,07,17,14,1024.10
2020,05,07,17,15,1024.10
2020,05,07,17,16,1024.00
2020,05,07,17,17,1024.00
2020,05,07,17,18,1024.00
2020,05,07,17,19,1024.00
2020,05,07,17,20,1023.90
2020,05,07,17,21,1023.90
2020,05,07,17,22,1023.90
2020,05,07,17,23,1023.80
2020,05,07,17,24,1023.80
2020,05,07,17,25,1023.80
2020,05,07,17,26,1023.80
2020,05,07,17,27,1023.70
2020,05,07,17,28,1023.70
2020,05,07,17,29,1023.70
2020,05,07,17,30,1023.70
2020,05,07,17,31,1023.70
2020,05,07,17,32,1023.70
2020,05,07,17,33,1023.70
2020,05,07,17,34,1023.70
2020,05,07,17,35,1023.70
2020,05,07,17,36,1023.70
2020,05,07,17,37,1023.70
2020,05,07,17,38,1023.70
2020,05,07,17,39,1023.70
2020,05,07,17,40,1023.70
2020,05,07,17,41,1023.70
2020,05,07,17,42,1023.70
2020,05,07,17,43,1023.70
2020,05,07,17,44,1023.60
2020,05,07,17,45,1023.70
2020,05,07,17,46,1023.60
2020,05,07,17,47,1023.60
2020,05,07,17,48,1023.60
2020,05,07,17,49,1023.60
2020,05,07,17,50,1023.60
2020,05,07,17,51,1023.60
2020,05,07,17,52,1023.60
2020,05,07,17,53,1023.50
2020,05,07,17,54,1023.50
2020,05,07,17,55,1023.50
2020,05,07,17,56,1023.50
2020,05,07,17,57,1023.40
2020,05,07,17,58,1023.40
2020,05,07,17,59,1023.40
2020,05,07,18,00,1023.30
2020,05,07,18,01,1023.30
2020,05,07,18,02,1023.30
2020,05,07,18,03,1023.30
2020,05,07,18,04,1023.30
2020,05,07,18,05,1023.20
2020,05,07,18,06,1023.20
2020,05,07,18,07,1023.20
2020,05,07,18,08,1023.20
2020,05,07,18,09,1023.20
2020,05,07,18,10,1023.20
2020,05,07,18,11,1023.20
2020,05,07,18,12,1023.20
2020,05,07,18,13,1023.20
2020,05,07,18,14,1023.20
2020,05,07,18,15,1023.10
2020,05,07,18,16,1023.10
2020,05,07,18,17,1023.10
2020,05,07,18,18,1023.10
2020,05,07,18,19,1023.10
2020,05,07,18,20,1023.10
2020,05,07,18,21,1023.10
2020,05,07,18,22,1023.10
2020,05,07,18,23,1023.10
2020,05,07,18,24,1023.10
2020,05,07,18,25,1023.10
2020,05,07,18,26,1023.10
2020,05,07,18,27,1023.00
2020,05,07,18,28,1023.00
2020,05,07,18,29,1023.00
2020,05,07,18,30,1023.00
2020,05,07,18,32,1023.00
2020,05,07,18,33,1023.00
2020,05,07,18,34,1022.90
2020,05,07,18,35,1022.90
2020,05,07,18,36,1022.90
2020,05,07,18,37,1022.80